Regional Weather Roundup
Issued by NWS

Home | Current Version | Previous Version | Graphics & Text | Print | Product List | Glossary On
Versions: 1 2 3 4 5 6 7 8 9 10 11 12 13 14 15 16 17 18 19 20 21 22 23 24 25 26 27 28 29 30 31 32 33 34 35 36 37 38 39 40 41 42 43 44 45 46 47 48 49 50
000
ASUS43 KLSX 010410
RWRMO

WEATHER SUMMARY FOR MISSOURI
NATIONAL WEATHER SERVICE SPRINGFIELD MO
1100 PM CDT SAT APR 30 2016

NOTE: "FAIR" INDICATES FEW OR NO CLOUDS BELOW 12,000 FEET WITH NO
       SIGNIFICANT WEATHER AND/OR OBSTRUCTIONS TO VISIBILITY.
       CURRENT SKY AND/OR WEATHER CONDITIONS ARE NOT AVAILABLE FOR
       CHILLICOTHE AND FARMINGTON.

MOZ001>031-035>038-043-044-053-054-010500-
...NORTHERN AND WESTERN MISSOURI...

CITY           SKY/WX    TMP DP  RH WIND       PRES   REMARKS
KANSAS CTY INT MOCLDY    56  49  77 SW6       29.86R
KANSAS C DTWN  CLOUDY    60  53  77 CALM      29.85R
LEE`S SUMMIT   CLOUDY    59  49  69 W5        29.86R
ST JOSEPH      CLOUDY    56  52  86 SW3       29.85R
CHILLICOTHE      N/A     52  50  93 CALM      29.85R
KIRKSVILLE     CLOUDY    55  53  93 NE8       29.86R

$$
MOZ066>068-077>081-088>096-101>105-010500-
...SOUTHWEST MISSOURI...

CITY           SKY/WX    TMP DP  RH WIND       PRES   REMARKS
SPRINGFIELD    CLEAR     58  50  75 CALM      29.87R
JOPLIN         CLEAR     55  52  89 CALM      29.89R

$$
MOZ032>034-039>042-045>050-055>058-069>072-010500-
...CENTRAL MISSOURI...

CITY           SKY/WX    TMP DP  RH WIND       PRES   REMARKS
COLUMBIA       CLEAR     61  52  72 CALM      29.84R
JEFFERSON CITY PTCLDY    59  56  89 CALM      29.84R
ROLLA          PTCLDY    59  56  89 NW5       29.83R
SEDALIA        PTCLDY    61  52  72 W3        29.86R
WHITEMAN AFB   PTCLDY    57  53  87 W3        29.85R
WARRENSBURG    PTCLDY    55  48  76 CALM      29.86R
OSAGE BEACH    PTCLDY    55  46  71 CALM      29.85S

$$
MOZ051-052-059>065-010500-
...EAST CENTRAL MISSOURI...

CITY           SKY/WX    TMP DP  RH WIND       PRES   REMARKS
ST LOUIS INTL  MOCLDY    61  55  81 SE8       29.85R
SPIRIT OF STL  CLOUDY    62  58  86 VRB7      29.83R THUNDER
ST CHARLES     CLOUDY    59  55  87 CALM      29.84R

$$
MOZ072>076-082>087-097>100-106>115-010500-
...SOUTH CENTRAL AND SOUTHEAST MISSOURI...

CITY           SKY/WX    TMP DP  RH WIND       PRES   REMARKS
CAPE GIRARDEAU CLOUDY    64  61  90 CALM      29.84R
FARMINGTON     PTCLDY    62  59  90 S6        29.86R
POPLAR BLUFF   MOCLDY    69  62  78 S8        29.83R
WEST PLAINS    LGT RAIN  61  58  90 NW6       29.87R

$$



USA.gov is the U.S. government's official web portal to all federal, state and local government web resources and services.